Weather History for Greenville Downtown, SC

Change the Weather History Date:

Monday, April 29, 2013

  Actual Average Record
Temperature  
Mean Temperature 63 °F -  
Max Temperature 73 °F 72 °F 86 °F (2002)
Min Temperature 53 °F 52 °F 42 °F (1999)
Degree Days  
Heating Degree Days 2    
Growing Degree Days 13 (Base 50)    
Moisture  
Dew Point 55 °F    
Average Humidity 81    
Maximum Humidity 100    
Minimum Humidity 53    
Precipitation  
Precipitation 0.07 in - - ()
Sea Level Pressure  
Sea Level Pressure 30.02 in    
Wind  
Wind Speed 4 mph (WSW)    
Max Wind Speed 10 mph    
Max Gust Speed -    
Visibility 10 miles    
Events Rain    
Averages and records for this station are not official NWS values.
T = Trace of Precipitation, MM = Missing Value Source: NWS Daily Summary

Daily Weather History Graph

Daily Weather History Graph

Search for Another Location

Airport:

Trip Planner

Search our weather history database for the weather conditions in past years. The results will help you decide how hot, cold, wet, or windy it might be!

Date:

Astronomy

Apr. 29, 2013 Rise Set
Actual Time 6:40 AM EDT 8:13 PM EDT
Civil Twilight 6:13 AM EDT 8:40 PM EDT
Nautical Twilight 5:41 AM EDT 9:12 PM EDT
Astronomical Twilight 5:07 AM EDT 9:46 PM EDT
Moon No Moon Rise 10:03 AM EDT (4/29)
Length of Visible Light 14h 26m
Length of Day
13h 32m
Waning Gibbous, 80% of the Moon is Illuminated
Apr 29
Waning Gibbous
May 2
Last Quarter
May 9
New
May 18
First Quarter
May 25
Full

Hourly Weather History & Observations

Time (EDT) Temp. Dew Point Humidity Pressure Visibility Wind Dir Wind Speed Gust Speed Precip Events Conditions
12:15 AM 53.6 °F 53.6 °F 100% 30.06 in 10.0 mi ENE 4.6 mph - 0.00 in   Overcast
12:53 AM 54.0 °F 53.1 °F 97% 30.07 in 7.0 mi North 4.6 mph - 0.01 in Rain Light Rain
1:53 AM 54.0 °F 53.1 °F 97% 30.07 in 8.0 mi North 5.8 mph - 0.03 in Rain Light Rain
2:23 AM 53.6 °F 53.6 °F 100% 30.06 in 9.0 mi NNE 6.9 mph - 0.02 in Rain Light Rain
2:53 AM 55.0 °F 53.1 °F 93% 30.05 in 10.0 mi Calm Calm - 0.03 in Rain Light Rain
3:04 AM 55.4 °F 53.6 °F 94% 30.04 in 10.0 mi NE 3.5 mph - 0.00 in   Overcast
3:11 AM 55.4 °F 53.6 °F 94% 30.04 in 10.0 mi Calm Calm - 0.00 in   Overcast
3:28 AM 55.4 °F 53.6 °F 94% 30.04 in 10.0 mi North 3.5 mph - 0.00 in   Overcast
3:44 AM 55.4 °F 53.6 °F 94% 30.04 in 10.0 mi North 4.6 mph - 0.00 in   Overcast
3:53 AM 55.0 °F 53.1 °F 93% 30.04 in 10.0 mi North 3.5 mph - 0.00 in   Overcast
4:53 AM 55.0 °F 53.1 °F 93% 30.02 in 10.0 mi North 3.5 mph - N/A   Overcast
5:53 AM 55.0 °F 53.1 °F 93% 30.02 in 10.0 mi North 4.6 mph - N/A   Overcast
6:53 AM 55.9 °F 53.1 °F 90% 30.03 in 10.0 mi North 4.6 mph - N/A   Overcast
7:49 AM 55.4 °F 53.6 °F 94% 30.05 in 10.0 mi Calm Calm - N/A   Overcast
7:53 AM 57.0 °F 54.0 °F 89% 30.04 in 10.0 mi Calm Calm - N/A   Overcast
8:53 AM 57.0 °F 55.0 °F 93% 30.05 in 10.0 mi East 4.6 mph - N/A   Overcast
9:05 AM 57.2 °F 55.4 °F 94% 30.05 in 10.0 mi East 4.6 mph - N/A   Mostly Cloudy
9:53 AM 60.1 °F 55.0 °F 83% 30.05 in 10.0 mi Calm Calm - N/A   Mostly Cloudy
10:04 AM 60.8 °F 55.4 °F 82% 30.05 in 10.0 mi South 4.6 mph - N/A   Mostly Cloudy
10:53 AM 61.0 °F 55.9 °F 83% 30.06 in 10.0 mi SW 4.6 mph - N/A   Overcast
11:53 AM 62.1 °F 57.0 °F 84% 30.05 in 10.0 mi South 5.8 mph - N/A   Overcast
12:53 PM 64.9 °F 57.0 °F 75% 30.04 in 10.0 mi SW 8.1 mph - N/A   Mostly Cloudy
1:13 PM 64.4 °F 57.2 °F 77% 30.05 in 10.0 mi WSW 6.9 mph - N/A   Overcast
1:53 PM 66.0 °F 57.0 °F 73% 30.03 in 10.0 mi SW 8.1 mph - N/A   Overcast
2:53 PM 71.1 °F 57.0 °F 61% 30.00 in 10.0 mi SW 8.1 mph - N/A   Scattered Clouds
3:29 PM 71.6 °F 55.4 °F 57% 29.99 in 10.0 mi SW 10.4 mph - N/A   Mostly Cloudy
3:40 PM 71.6 °F 55.4 °F 57% 29.99 in 10.0 mi SSW 10.4 mph - N/A   Mostly Cloudy
3:53 PM 73.0 °F 55.9 °F 55% 29.97 in 10.0 mi SW 9.2 mph - N/A   Mostly Cloudy
4:53 PM 73.9 °F 55.9 °F 53% 29.94 in 10.0 mi SW 10.4 mph - N/A   Partly Cloudy
5:53 PM 73.0 °F 55.0 °F 53% 29.94 in 10.0 mi SSW 6.9 mph - N/A   Partly Cloudy
6:53 PM 72.0 °F 54.0 °F 53% 29.94 in 10.0 mi SW 4.6 mph - N/A   Clear
7:53 PM 69.1 °F 54.0 °F 58% 29.96 in 10.0 mi SSW 4.6 mph - N/A   Clear
8:53 PM 66.0 °F 55.9 °F 70% 29.98 in 10.0 mi SSW 3.5 mph - N/A   Clear
9:53 PM 64.0 °F 55.9 °F 75% 30.00 in 10.0 mi Calm Calm - N/A   Clear
10:53 PM 62.1 °F 55.9 °F 80% 30.01 in 10.0 mi Calm Calm - N/A   Clear
11:53 PM 61.0 °F 57.0 °F 87% 30.00 in 10.0 mi Calm Calm - N/A   Clear